Brownsville, TX

5:51 AM CST on February 11, 2016 (GMT -0600)
Brownsville-South Padre I International

Weather History for KBRO - October, 2012

Change the Weather History Date:

Wednesday, October 3, 2012

  Actual Average Record
Temperature  
Mean Temperature 80 °F 79 °F  
Max Temperature 92 °F 88 °F 97 °F (1893)
Min Temperature 68 °F 70 °F 56 °F (1895)
Degree Days  
Heating Degree Days 0 0  
Month to date heating degree days 0 0  
Since 1 July heating degree days 0 0  
Cooling Degree Days 15 14  
Month to date cooling degree days 42 42  
Year to date cooling degree days 4054 3453  
Growing Degree Days 30 (Base 50)    
Moisture  
Dew Point 68 °F    
Average Humidity 70    
Maximum Humidity 90    
Minimum Humidity 49    
Precipitation  
Precipitation 0.00 in 0.16 in 2.17 in (1933)
Month to date precipitation 0.00 0.50  
Year to date precipitation 20.12 21.23  
Sea Level Pressure  
Sea Level Pressure 29.97 in    
Wind  
Wind Speed 11 mph (SSE)    
Max Wind Speed 23 mph    
Max Gust Speed 30 mph    
Visibility 10 miles    
Events      
T = Trace of Precipitation, MM = Missing Value Source: NWS Daily Summary

Daily Weather History Graph

Daily Weather History Graph

Search for Another Location

Airport or City:

Trip Planner

Search our weather history database for the weather conditions in past years. The results will help you decide how hot, cold, wet, or windy it might be!

Date:

Astronomy

Oct. 03, 2012 Rise Set
Actual Time 7:23 AM CDT 7:13 PM CDT
Civil Twilight 7:00 AM CDT 7:36 PM CDT
Nautical Twilight 6:33 AM CDT 8:03 PM CDT
Astronomical Twilight 6:06 AM CDT 8:29 PM CDT
Moon 9:30 PM CDT (10/3) 10:24 AM CDT (10/3)
Length of Visible Light 12h 36m
Length of Day
11h 50m
Waning Gibbous, 88% of the Moon is Illuminated
Oct 3
Waning Gibbous
Oct 8
Last Quarter
Oct 15
New
Oct 21
First Quarter
Oct 29
Full

Hourly Weather History & Observations

Time (CDT) Temp. Heat Index Dew Point Humidity Pressure Visibility Wind Dir Wind Speed Gust Speed Precip Events Conditions
12:53 AM 70.0 °F - 66.0 °F 87% 29.98 in 10.0 mi Calm Calm - N/A   Clear
1:53 AM 69.1 °F - 66.0 °F 90% 29.98 in 10.0 mi ESE 3.5 mph - N/A   Clear
2:53 AM 69.1 °F - 64.9 °F 87% 29.98 in 10.0 mi Calm Calm - N/A   Clear
3:53 AM 68.0 °F - 64.9 °F 90% 29.97 in 10.0 mi SE 3.5 mph - N/A   Clear
4:53 AM 69.1 °F - 64.0 °F 84% 29.96 in 10.0 mi SE 3.5 mph - N/A   Clear
5:53 AM 69.1 °F - 63.0 °F 81% 29.97 in 10.0 mi SE 4.6 mph - N/A   Clear
6:53 AM 69.1 °F - 64.0 °F 84% 29.97 in 10.0 mi SE 5.8 mph - N/A   Clear
7:53 AM 70.0 °F - 66.0 °F 87% 29.97 in 10.0 mi SE 3.5 mph - N/A   Clear
8:53 AM 75.9 °F - 69.1 °F 79% 29.98 in 10.0 mi SSE 5.8 mph - N/A   Clear
9:53 AM 82.9 °F 86.5 °F 69.1 °F 63% 29.99 in 10.0 mi SSE 12.7 mph - N/A   Clear
10:53 AM 86.0 °F 90.1 °F 69.1 °F 57% 30.00 in 10.0 mi South 10.4 mph 18.4 mph N/A   Partly Cloudy
11:53 AM 89.1 °F 93.7 °F 69.1 °F 52% 30.00 in 10.0 mi SSE 13.8 mph - N/A   Scattered Clouds
12:53 PM 90.0 °F 93.6 °F 68.0 °F 48% 29.98 in 10.0 mi South 16.1 mph - N/A   Partly Cloudy
1:53 PM 89.1 °F 92.9 °F 68.0 °F 50% 29.95 in 10.0 mi South 20.7 mph 26.5 mph N/A   Scattered Clouds
2:53 PM 91.0 °F 95.6 °F 69.1 °F 48% 29.93 in 10.0 mi SSE 15.0 mph - N/A   Partly Cloudy
3:53 PM 90.0 °F 93.6 °F 68.0 °F 48% 29.92 in 10.0 mi SSE 20.7 mph 28.8 mph N/A   Partly Cloudy
4:53 PM 89.1 °F 93.7 °F 69.1 °F 52% 29.92 in 10.0 mi SSE 17.3 mph 28.8 mph N/A   Clear
5:53 PM 86.0 °F 91.5 °F 71.1 °F 61% 29.93 in 10.0 mi SSE 18.4 mph 24.2 mph N/A   Clear
6:53 PM 82.9 °F 87.5 °F 71.1 °F 67% 29.94 in 10.0 mi SSE 16.1 mph - N/A   Clear
7:53 PM 81.0 °F 85.8 °F 73.0 °F 77% 29.95 in 10.0 mi SSE 11.5 mph - N/A   Clear
8:53 PM 80.1 °F 83.8 °F 72.0 °F 76% 29.96 in 10.0 mi SE 10.4 mph - N/A   Clear
9:53 PM 79.0 °F - 72.0 °F 79% 29.98 in 10.0 mi SSE 10.4 mph - N/A   Clear
10:53 PM 79.0 °F - 73.9 °F 84% 30.00 in 10.0 mi SSE 10.4 mph - N/A   Clear
11:53 PM 79.0 °F - 73.9 °F 84% 30.01 in 10.0 mi SSE 10.4 mph - N/A   Clear